x

8461490 - New London, Ct (nlnc3) Weather Station

12:54 - Tue 27th Sep 2016 All times are EDT. -4 hours from GMT.

  • Wind
    13mph, 17mph gusts
  • Sea Temp 67°f
  • Air Temp 68°f
  • Sea Pressure 1014.9mb
  • 8461490 - New London, Ct
  • 8461490 - New London, Ct

More Historic Weather Station data

Upgrade to MSW Pro to gain access to the past 30 days of data for over 8000 Wavebouys and Weather Stations around the globe.

Join Pro

Comparision Forecast

View Surf forecast
   
mar. 09/27 12:54 13 17 mph 1014.9mb 67f 68f
12:48 10 14 mph 1015.1mb 67f 68f
12:42 9 13 mph 1015.2mb 67f 68f
12:36 10 14 mph 1015.4mb 67f 68f
12:30 10 15 mph 1015.6mb 67f 68f
12:24 10 13 mph 1015.7mb 67f 68f
12:18 8 11 mph 1015.8mb 67f 68f
12:12 10 14 mph 1015.9mb 67f 68f
12:06 9 15 mph 1016.1mb 67f 68f
12:00 10 16 mph 1016.1mb 67f 68f
lun. 09/26 11:54 10 16 mph 1016.2mb 67f 68f
11:48 11 15 mph 1016.4mb 67f 68f
11:42 10 14 mph 1016.4mb 66f 68f
11:36 8 14 mph 1016.7mb 66f 68f
11:30 9 13 mph 1016.8mb 66f 68f
11:24 10 16 mph 1016.9mb 66f 68f
11:18 13 17 mph 1016.9mb 66f 68f
11:12 10 16 mph 1017mb 66f 68f
11:06 13 15 mph 1017mb 66f 69f
11:00 11 18 mph 1017.1mb 66f 69f
10:54 10 14 mph 1017.1mb 66f 69f
10:48 13 15 mph 1017.1mb 66f 69f
10:42 13 18 mph 1017.2mb 66f 69f
10:36 10 14 mph 1017.4mb 66f 69f
10:30 9 15 mph 1017.5mb 66f 68f
10:24 11 18 mph 1017.6mb 66f 68f
10:18 11 18 mph 1017.6mb 66f 68f
10:12 11 14 mph 1017.7mb 66f 69f
10:06 9 14 mph 1017.6mb 65f 69f
10:00 7 13 mph 1017.6mb 65f 69f
9:54 10 16 mph 1017.8mb 65f 69f
9:48 10 16 mph 1017.8mb 65f 69f
9:42 9 14 mph 1017.9mb 65f 69f
9:36 10 14 mph 1017.9mb 65f 69f
9:30 10 15 mph 1018mb 65f 69f
9:24 10 16 mph 1018mb 65f 69f
9:18  -  mph 1018mb 65f 69f
9:12  -  mph 1018mb 65f 69f
9:06  -  mph 1018.1mb 65f 69f
9:00 10 15 mph 1018mb 65f 69f
8:54 13 15 mph 1018mb 65f 69f
8:48 10 15 mph 1018.1mb 65f 69f
8:42 10 14 mph 1018.2mb 65f 69f
8:36 13 15 mph 1018.2mb 65f 69f
8:30 10 17 mph 1018.3mb 65f 69f
8:24 10 15 mph 1018.2mb 65f 69f
8:18  -  mph 1018.3mb 65f 69f
8:12  -  mph 1018.2mb 65f 69f
8:06  -  mph 1018.2mb 65f 69f
8:00 14 17 mph 1018.2mb 65f 69f
7:54 11 17 mph 1018.2mb 65f 69f
7:48 13 15 mph 1018.3mb 65f 69f
7:42 13 17 mph 1018.2mb 65f 69f
7:36 13 17 mph 1018.2mb 65f 69f
7:30 14 16 mph 1018.2mb 65f 69f
7:24 13 18 mph 1018.3mb 65f 69f
7:18 13 17 mph 1018.2mb 65f 69f
7:12 14 17 mph 1018.3mb 65f 69f
7:06 13 17 mph 1018.3mb 65f 69f